Weather Roundup
Issued by NWS Chicago, IL

Home | Current Version | Previous Version | Text Only | Print | Product List | Glossary On
Versions: 1 2 3 4 5 6 7 8 9 10 11 12 13 14 15 16 17 18 19 20 21 22 23 24 25 26 27 28 29 30 31 32 33 34 35 36 37 38 39 40 41 42 43 44 45 46 47 48 49 50
000
NZUS59 KLOT 242208
HRRLOT

CHICAGO AREA WEATHER ROUNDUP
NATIONAL WEATHER SERVICE CHICAGO/ROMEOVILLE IL
500 PM CDT TUE APR 24 2018

NOTE: "FAIR" INDICATES FEW OR NO CLOUDS BELOW 12,000 FEET WITH NO
SIGNIFICANT WEATHER AND/OR OBSTRUCTIONS TO VISIBILITY.

* THESE STATIONS ARE NOT UNDER NWS QUALITY CONTROL. THEY ALSO MAY NOT
  REPORT WEATHER SUCH AS PRECIPITATION OR FOG.

ILZ005-006-012>014-019>023-242300-
NORTHEAST ILLINOIS

CITY           SKY/WX    TMP DP  RH WIND       PRES   REMARKS
OHARE            N/A     63  47  55 NE10      29.98R
MIDWAY         PTSUNNY   63  49  60 N9        29.98S
AURORA           N/A     70  47  43 NE13G21   29.96S
LANSING*         N/A     57  50  77 N9        29.99S
JOLIET*          N/A     69  51  52 N8        29.97R
WAUKEGAN         N/A     58  48  69 E10       30.00R
DUPAGE AIRPORT   N/A     67  49  52 NE13      29.97R
WHEELING         N/A     61  48  62 NE7       30.01R
KANKAKEE*      PTSUNNY   66  49  54 NE12G17   29.96S
MORRIS*          N/A     70  48  44 NE7       29.95S
LEWIS AIRPORT*   N/A     66  49  55 NE8       29.97R
NORTHERLY ISL    N/A     51  44  77 N9          N/A
$$

WIZ051-052-058>065-066-070>072-242300-
SOUTHEAST WISCONSIN

CITY           SKY/WX    TMP DP  RH WIND       PRES   REMARKS
MILWAUKEE        N/A     57  48  72 E9        30.02R
KENOSHA*         N/A     60  47  61 E10       30.00S
RACINE*          N/A     59  48  67 NE9       30.02S
BURLINGTON       N/A     67  47  47 SE9       29.98S
WAUKESHA       SUNNY     64  43  45 E9G17     30.00S
WEST BEND        N/A     63  45  51 E8        30.01R
$$

INZ001>003-010>013-019-020-242300-
NORTHWEST INDIANA

CITY           SKY/WX    TMP DP  RH WIND       PRES   REMARKS
GARY*          PTSUNNY   54  46  76 N9        30.01
MICHIGAN CITY* NOT AVBL
RENSSELAER*    NOT AVBL
VALPARAISO     CLOUDY    61  50  67 N10       29.98S
$$

LMZ740>746-242300-
SOUTHERN LAKE MICHIGAN

STATION/POSITION TIME  SKY/WX   TEMP WIND        PRES    VSBY
                                AIR  DIR/SP/G
                 (UTC)          (F)  (DEG/KT/KT) (MB)    (MI)
HARRISON CRIB    2140            44   10/  6/  7   N/A
BURNHAM HARBOR   2200            51  360/  8/ 13   N/A
CALUMET HARBOR   2148            49  350/  8/ 11 1015.3F
BURNS HARBOR     2140            47   50/  6/  8 1016.3F
MICHIGAN CITY    2140            44   40/  6/  6   N/A
$$

ABBREVIATIONS USED IN REMARKS
   TC - TEMPERATURE IN CELSIUS
  WCI - WIND CHILL INDEX
   HX - HEAT INDEX
  VSB - VISIBILITY
$$



USA.gov is the U.S. government's official web portal to all federal, state and local government web resources and services.